TimeEST,TemperatureF,Dew PointF,Humidity,Sea Level PressureIn,VisibilityMPH,Wind Direction,Wind SpeedMPH,Gust SpeedMPH,PrecipitationIn,Events,Conditions,WindDirDegrees,DateUTC
12:54 AM,43.0,39.9,89,30.29,10.0,Calm,Calm,-,N/A,,Clear,0,2012-12-03 05:54:00
1:54 AM,42.1,39.0,89,30.29,10.0,Calm,Calm,-,N/A,,Clear,0,2012-12-03 06:54:00
2:54 AM,39.0,37.0,93,30.30,10.0,Calm,Calm,-,N/A,,Clear,0,2012-12-03 07:54:00
3:54 AM,39.0,37.0,93,30.30,10.0,Calm,Calm,-,N/A,,Mostly Cloudy,0,2012-12-03 08:54:00
4:54 AM,39.0,37.0,93,30.30,10.0,Calm,Calm,-,N/A,,Partly Cloudy,0,2012-12-03 09:54:00
5:54 AM,39.0,36.0,89,30.31,10.0,Calm,Calm,-,N/A,,Clear,0,2012-12-03 10:54:00
6:54 AM,37.9,36.0,93,30.33,10.0,Calm,Calm,-,N/A,,Partly Cloudy,0,2012-12-03 11:54:00
7:54 AM,37.9,36.0,93,30.35,10.0,Calm,Calm,-,N/A,,Scattered Clouds,0,2012-12-03 12:54:00
8:54 AM,42.1,39.0,89,30.34,10.0,Calm,Calm,-,N/A,,Overcast,0,2012-12-03 13:54:00
9:54 AM,51.8,44.6,76,30.34,10.0,North,3.5,-,N/A,,Clear,360,2012-12-03 14:54:00
10:54 AM,57.9,46.0,65,30.32,10.0,Calm,Calm,-,N/A,,Clear,0,2012-12-03 15:54:00
11:54 AM,66.0,46.9,50,30.28,10.0,Calm,Calm,-,N/A,,Clear,0,2012-12-03 16:54:00
12:54 PM,66.9,46.0,47,30.25,10.0,Calm,Calm,-,N/A,,Clear,0,2012-12-03 17:54:00
1:54 PM,69.1,46.9,45,30.22,10.0,South,3.5,-,N/A,,Clear,180,2012-12-03 18:54:00
2:54 PM,69.1,46.9,45,30.22,10.0,South,9.2,-,N/A,,Clear,170,2012-12-03 19:54:00
3:54 PM,68.0,46.9,47,30.22,10.0,SSE,9.2,-,N/A,,Scattered Clouds,160,2012-12-03 20:54:00
4:54 PM,64.0,46.9,54,30.24,10.0,South,9.2,-,N/A,,Clear,170,2012-12-03 21:54:00
5:54 PM,61.0,46.0,58,30.26,10.0,SSE,4.6,-,N/A,,Clear,150,2012-12-03 22:54:00
6:54 PM,55.9,46.0,69,30.28,10.0,South,5.8,-,N/A,,Clear,170,2012-12-03 23:54:00
7:54 PM,55.9,45.0,67,30.28,10.0,Calm,Calm,-,N/A,,Clear,0,2012-12-04 00:54:00
8:54 PM,52.0,44.1,74,30.28,10.0,Calm,Calm,-,N/A,,Clear,0,2012-12-04 01:54:00
9:54 PM,48.9,43.0,80,30.28,10.0,Calm,Calm,-,N/A,,Clear,0,2012-12-04 02:54:00
10:54 PM,46.0,42.1,86,30.28,10.0,Calm,Calm,-,N/A,,Clear,0,2012-12-04 03:54:00
11:54 PM,43.0,41.0,93,30.28,10.0,Calm,Calm,-,N/A,,Clear,0,2012-12-04 04:54:00